DW9727 Weather Reports


Display with metric or nautical units.
time (UTC)temp
F
wind
direction
speed
MPH
gust
MPH
rain 1hr
in
rain 24hr
in
rain mn
in
humidity
%
barometer
mb
20260904161711 85 223 3.0 6.0 0.00 0.00 0.00 66 1009.4
20260904160711 85 209 2.0 5.0 0.00 0.00 0.00 69 1009.2
20260904155711 84 202 3.0 6.0 0.00 0.00 0.00 68 1009.3
20260904154711 84 253 1.0 2.0 0.00 0.00 0.00 67 1009.1
20260904153710 84 333 2.0 3.0 0.00 0.00 0.00 71 1009.3
20260904152710 83 250 0.0 3.0 0.00 0.00 0.00 71 1009.2
20260904151711 83 312 1.0 3.0 0.00 0.00 0.00 69 1009.1
20260904150710 82 199 2.0 3.0 0.00 0.00 0.00 71 1009.2
20260904144711 82 222 0.0 2.0 0.00 0.00 0.00 70 1009.3
20260904143710 81 332 2.0 3.0 0.00 0.00 0.00 73 1009.1
20260904142710 80 311 1.0 3.0 0.00 0.00 0.00 74 1009.0
20260904141710 79 298 2.0 3.0 0.00 0.00 0.00 76 1009.1
20260904140710 78 318 0.0 2.0 0.00 0.00 0.00 77 1009.1
20260904135710 78 292 0.0 0.0 0.00 0.00 0.00 78 1009.2
20260904134710 77 292 0.0 0.0 0.00 0.00 0.00 79 1009.0
20260904133710 75 292 0.0 0.0 0.00 0.00 0.00 83 1009.1
20260904130712 71 293 0.0 0.0 0.00 0.00 0.00 88 1008.8
20260904125710 70 293 0.0 0.0 0.00 0.00 0.00 89 1008.6
20260904124711 70 293 0.0 0.0 0.00 0.00 0.00 87 1008.5
20260904123712 69 293 0.0 0.0 0.00 0.00 0.00 87 1008.3
20260904120710 70 293 0.0 1.0 0.00 0.00 0.00 85 1008.0
20260904115711 70 293 0.0 0.0 0.00 0.00 0.00 85 1007.8
20260904114711 71 293 0.0 0.0 0.00 0.00 0.00 85 1007.8
20260904112710 71 283 2.0 2.0 0.00 0.00 0.00 83 1007.6
20260904111710 72 255 1.0 2.0 0.00 0.00 0.00 82 1007.6
20260904110710 73 217 0.0 0.0 0.00 0.00 0.00 81 1007.4
20260904105711 73 217 1.0 3.0 0.00 0.00 0.00 82 1007.3
20260904104711 73 209 2.0 3.0 0.00 0.00 0.00 81 1007.4
20260904103711 74 215 2.0 3.0 0.00 0.00 0.00 81 1007.3
20260904102710 74 208 2.0 3.0 0.00 0.00 0.00 80 1007.3
20260904101710 74 207 3.0 6.0 0.00 0.00 0.00 80 1007.3
20260904100710 74 217 3.0 5.0 0.00 0.00 0.00 80 1007.2
20260904095710 74 214 4.0 5.0 0.00 0.00 0.00 79 1007.0
20260904094711 74 214 3.0 5.0 0.00 0.00 0.00 79 1006.9
20260904093711 74 215 2.0 3.0 0.00 0.00 0.00 78 1006.8
20260904092711 75 223 2.0 3.0 0.00 0.00 0.00 78 1006.8
20260904091710 75 216 3.0 5.0 0.00 0.00 0.00 78 1006.8
20260904085710 76 209 2.0 3.0 0.00 0.00 0.00 76 1006.4
20260904084710 76 232 0.0 0.0 0.00 0.00 0.00 74 1006.2
20260904083710 76 232 0.0 0.0 0.00 0.00 0.00 74 1006.3
20260904082710 77 198 0.0 3.0 0.00 0.00 0.00 73 1006.1
20260904081711 77 212 2.0 8.0 0.00 0.00 0.00 73 1006.0
20260904080710 77 193 3.0 7.0 0.00 0.00 0.00 73 1006.0
20260904075710 77 215 5.0 8.0 0.00 0.00 0.00 72 1006.0
20260904074712 78 192 4.0 8.0 0.00 0.00 0.00 72 1006.0
20260904073710 78 195 6.0 12.0 0.00 0.00 0.00 71 1006.0
20260904072710 78 180 8.0 15.0 0.00 0.00 0.00 71 1006.0
20260904071711 78 169 8.0 14.0 0.00 0.00 0.00 70 1005.9
20260904070710 78 195 10.0 15.0 0.00 0.00 0.00 70 1006.1
20260904065710 78 164 8.0 14.0 0.00 0.00 0.00 70 1005.9
20260904064710 79 196 8.0 12.0 0.00 0.00 0.00 70 1006.0
20260904063711 79 205 7.0 12.0 0.00 0.00 0.00 70 1006.0
20260904062710 79 207 6.0 12.0 0.00 0.00 0.00 69 1005.9
20260904061711 79 209 8.0 12.0 0.00 0.00 0.00 69 1005.9
20260904060711 79 189 7.0 12.0 0.00 0.00 0.00 70 1005.8
20260904055711 79 171 7.0 12.0 0.00 0.00 0.00 70 1005.8
20260904053711 80 169 6.0 12.0 0.00 0.00 0.00 70 1005.6
20260904052710 80 198 5.0 8.0 0.00 0.00 0.00 70 1005.6
20260904050711 81 177 4.0 9.0 0.00 0.00 0.00 69 1005.6
20260904045711 81 182 3.0 7.0 0.00 0.00 0.00 69 1005.6
20260904044711 81 177 3.0 6.0 0.00 0.00 0.00 68 1005.7
20260904043710 82 194 2.0 6.0 0.00 0.00 0.00 68 1005.9
20260904042711 82 186 2.0 7.0 0.00 0.00 0.00 68 1005.8
20260904041710 83 171 1.0 3.0 0.00 0.00 0.00 67 1005.9
20260904040710 83 191 3.0 14.0 0.00 0.00 0.00 67 1005.8
20260904035711 83 198 5.0 9.0 0.00 0.00 0.00 66 1005.7
20260904033710 84 150 3.0 10.0 0.00 0.00 0.00 65 1005.7
20260904032710 85 178 3.0 8.0 0.00 0.00 0.00 65 1005.8
20260904031711 85 149 2.0 6.0 0.00 0.00 0.00 65 1005.7
20260904030711 85 159 2.0 5.0 0.00 0.00 0.00 65 1005.8
20260904025710 86 164 2.0 8.0 0.00 0.00 0.00 65 1005.6
20260904024711 86 142 1.0 5.0 0.00 0.00 0.00 65 1005.6
20260904021710 87 142 3.0 6.0 0.00 0.00 0.00 64 1005.4
20260904020710 87 150 1.0 3.0 0.00 0.00 0.00 64 1005.3
20260904015711 88 63 1.0 2.0 0.00 0.00 0.00 63 1005.1
20260904014710 88 95 0.0 3.0 0.00 0.00 0.00 62 1004.9
20260904013710 89 123 3.0 7.0 0.00 0.00 0.00 62 1004.8
20260904012710 89 141 3.0 8.0 0.00 0.00 0.00 62 1004.7
20260904010710 90 145 2.0 7.0 0.00 0.00 0.00 60 1004.4
20260904005711 91 109 3.0 9.0 0.00 0.00 0.00 59 1004.3
20260904004711 92 155 4.0 9.0 0.00 0.00 0.00 57 1004.3
20260904003711 92 152 3.0 6.0 0.00 0.00 0.00 56 1004.4
20260904002711 93 173 3.0 7.0 0.00 0.00 0.00 55 1004.3
20260904001710 93 144 3.0 6.0 0.00 0.00 0.00 55 1004.2
20260904000711 93 157 3.0 7.0 0.00 0.00 0.00 55 1004.2
20260903235710 93 169 2.0 7.0 0.00 0.00 0.00 55 1004.2
20260903234711 94 178 4.0 9.0 0.00 0.00 0.00 54 1004.2
20260903233711 94 175 5.0 9.0 0.00 0.00 0.00 53 1004.2
20260903232710 95 196 6.0 12.0 0.00 0.00 0.00 53 1004.2
20260903231710 95 175 7.0 13.0 0.00 0.00 0.00 52 1004.1
20260903225711 96 188 7.0 12.0 0.00 0.00 0.00 51 1004.0
20260903224711 96 164 7.0 12.0 0.00 0.00 0.00 51 1003.8
20260903223711 96 182 6.0 12.0 0.00 0.00 0.00 52 1003.9
20260903222711 96 217 7.0 9.0 0.00 0.00 0.00 51 1003.9
20260903221710 96 198 5.0 10.0 0.00 0.00 0.00 53 1004.1
20260903220710 96 192 7.0 15.0 0.00 0.00 0.00 51 1004.1
20260903214710 96 214 9.0 12.0 0.00 0.00 0.00 51 1004.2
20260903213710 96 178 8.0 15.0 0.00 0.00 0.00 50 1004.3
20260903211711 96 199 7.0 14.0 0.00 0.00 0.00 50 1004.4
20260903210711 96 178 8.0 12.0 0.00 0.00 0.00 50 1004.4
20260903205711 95 207 5.0 20.0 0.00 0.00 0.00 50 1004.6
20260903204712 95 167 7.0 14.0 0.00 0.00 0.00 51 1004.6
20260903202711 95 142 9.0 14.0 0.00 0.00 0.00 51 1004.8
20260903201711 95 192 6.0 12.0 0.00 0.00 0.00 52 1004.7
20260903195711 94 205 3.0 15.0 0.00 0.00 0.00 55 1004.9
20260903194711 93 225 9.0 14.0 0.00 0.00 0.00 53 1004.9
20260903193710 93 200 7.0 15.0 0.00 0.00 0.00 52 1005.0
20260903192710 93 175 9.0 16.0 0.00 0.00 0.00 52 1005.0
20260903191710 93 184 9.0 15.0 0.00 0.00 0.00 53 1005.1
20260903190710 92 205 7.0 13.0 0.00 0.00 0.00 54 1005.0
20260903184710 91 219 10.0 17.0 0.00 0.00 0.00 55 1005.3
20260903183711 91 209 10.0 17.0 0.00 0.00 0.00 53 1005.5
20260903182711 91 217 9.0 16.0 0.00 0.00 0.00 56 1005.8
20260903181711 90 215 13.0 21.0 0.00 0.00 0.00 55 1006.0
20260903180711 90 217 10.0 20.0 0.00 0.00 0.00 56 1006.1
20260903175710 90 208 11.0 18.0 0.00 0.00 0.00 56 1006.0
20260903174710 90 211 13.0 24.0 0.00 0.00 0.00 56 1006.2
20260903173711 89 196 11.0 20.0 0.00 0.00 0.00 57 1006.1
20260903172711 89 164 10.0 18.0 0.00 0.00 0.00 56 1006.3
20260903170710 89 203 10.0 20.0 0.00 0.00 0.00 58 1006.5
20260903165711 89 203 9.0 17.0 0.00 0.00 0.00 58 1006.6
20260903164710 88 201 8.0 16.0 0.00 0.00 0.00 61 1006.5
20260903163710 87 178 9.0 15.0 0.00 0.00 0.00 61 1006.7